(675) Ludmilla
ephemeris date magn radius delta ra dec elong phase
Today27 Jul 202614.23.309 AU3.321 AU13h19m-15°21'80.6°17.6°
Opposition21 Jun 202712.43.187 AU2.171 AU18h01m-21°39'178.1°0.6°
(675) Ludmilla - 2026-07-27
astro.vanbuitenen.nl


 
-1 year
-1 month
-1 day
Now
+1 day
+1 month
+1 year

The interactive orbit chart above shows the body's path through the solar system and its position at the given date. Green and blue lines are shown perpendicular to the ecliptic plane: Green if the path is above the ecliptic plane, blue if it is below. (Left-click and drag to rotate the view; Right-click and drag to move the view; Use scroll wheel to zoom in our out.)

The orbital elements of Ludmilla are:

            e (Eccentricity)                : 0.2048416
            a (Semimajor axis)              : 2.7672670
            i (Inclination)                 : 9.81081
            Ω (Longitude of ascending node) : 262.98792
            ω (Argument of perihelion)      : 152.33941
            M (Mean anomaly)                : 149.25728
            Epoch                           : 2026 Jun 09

            L (Longitude of perihelion)     : 235.67294
            B (Latitude of perihelion)      : 4.53702
            P (Orbital period in years)     : 4.60            
        

The light curve chart below shows the estimated development of the minor planet's magnitude.


The all-sky chart below shows the path of the minor planet over the same period as the light curve. The current position is marked yellow.





The following chart shows the path of the minor planet in the next few days. The field of view is optimized for (~10x50) binoculars and finderscopes.




Ephemerides:
Date       Time       RA (2000)    DEC (2000)    delta   radius  elong  phase   PA    magn
2026-07-27 00:00 UT   13 19 33.3   -15 21 52     3.321    3.309   80.6   17.6   113   14.2 
2026-07-27 07:37 UT   13 19 48.7   -15 22 26     3.325    3.309   80.3   17.6   113   14.2 
2026-07-28 00:00 UT   13 20 22.1   -15 23 40     3.335    3.310   79.8   17.6   113   14.2 
2026-07-29 00:00 UT   13 21 11.5   -15 25 33     3.350    3.310   79.0   17.5   113   14.2 
2026-07-30 00:00 UT   13 22 01.6   -15 27 31     3.364    3.311   78.3   17.5   113   14.3 
2026-07-31 00:00 UT   13 22 52.3   -15 29 33     3.378    3.311   77.5   17.4   113   14.3 
2026-08-01 00:00 UT   13 23 43.7   -15 31 41     3.393    3.312   76.8   17.4   113   14.3 
2026-08-02 00:00 UT   13 24 35.6   -15 33 53     3.407    3.312   76.1   17.3   113   14.3 
2026-08-03 00:00 UT   13 25 28.2   -15 36 10     3.421    3.313   75.3   17.2   113   14.3 
2026-08-04 00:00 UT   13 26 21.4   -15 38 31     3.435    3.313   74.6   17.2   114   14.3 
2026-08-05 00:00 UT   13 27 15.2   -15 40 57     3.450    3.314   73.8   17.1   114   14.3 
2026-08-06 00:00 UT   13 28 09.6   -15 43 27     3.464    3.314   73.1   17.0   114   14.3 
2026-08-07 00:00 UT   13 29 04.6   -15 46 01     3.478    3.315   72.4   17.0   114   14.3 
2026-08-08 00:00 UT   13 30 00.2   -15 48 39     3.492    3.315   71.6   16.9   114   14.3 
2026-08-09 00:00 UT   13 30 56.4   -15 51 22     3.506    3.316   70.9   16.8   114   14.3 
2026-08-10 00:00 UT   13 31 53.1   -15 54 09     3.520    3.316   70.2   16.7   114   14.3 
2026-08-11 00:00 UT   13 32 50.4   -15 56 60     3.533    3.316   69.5   16.6   114   14.3 
2026-08-12 00:00 UT   13 33 48.2   -15 59 54     3.547    3.317   68.7   16.5   114   14.3 
2026-08-13 00:00 UT   13 34 46.6   -16 02 53     3.561    3.317   68.0   16.5   114   14.3 
2026-08-14 00:00 UT   13 35 45.6   -16 05 55     3.574    3.318   67.3   16.4   114   14.4 
2026-08-15 00:00 UT   13 36 45.1   -16 09 01     3.588    3.318   66.6   16.3   114   14.4 
2026-08-16 00:00 UT   13 37 45.0   -16 12 10     3.601    3.319   65.9   16.2   114   14.4 
2026-08-17 00:00 UT   13 38 45.6   -16 15 23     3.615    3.319   65.2   16.1   114   14.4 
2026-08-18 00:00 UT   13 39 46.6   -16 18 39     3.628    3.319   64.4   16.0   114   14.4 
2026-08-19 00:00 UT   13 40 48.1   -16 21 59     3.641    3.320   63.7   15.9   114   14.4 
2026-08-20 00:00 UT   13 41 50.1   -16 25 22     3.654    3.320   63.0   15.8   114   14.4 
2026-08-21 00:00 UT   13 42 52.6   -16 28 47     3.667    3.321   62.3   15.7   114   14.4 
2026-08-22 00:00 UT   13 43 55.6   -16 32 16     3.680    3.321   61.6   15.5   114   14.4 
2026-08-23 00:00 UT   13 44 59.0   -16 35 48     3.693    3.321   60.9   15.4   114   14.4 
2026-08-24 00:00 UT   13 46 02.9   -16 39 23     3.706    3.322   60.2   15.3   114   14.4 
2026-08-25 00:00 UT   13 47 07.3   -16 43 00     3.719    3.322   59.5   15.2   114   14.4 
2026-08-26 00:00 UT   13 48 12.1   -16 46 40     3.731    3.322   58.8   15.1   114   14.4 


    Terminology:
            
    delta:  distance between minor planet and earth in AU
    radius: distance between minor planet and sun in AU
    magn:   magnitude (brightness) estimate    
    ra:     right ascension in hours (24h = 360deg)
    dec:    declination in degrees
    elong:  elongation in degrees (angle sun-earth-minor planet)    
    phase:  phase angle in degrees (angle sun-minor planet-earth)        
    AU:     Astronomical Unit (mean distance between earth and sun: 149597870.7 km
    

Orbital elements provided by the MPC (Minor Planet Center).
Calculations by a modified version of AAPlus, a C# implementation of the AA+ project by PJ Naughter from the algorithms presented in the book "Astronomical Algorithms" by Jean Meeus.
NGC2000 dso catalog and star labels from VizieR as provided by the Strasbourg astronomical Data Center.
Tycho2 catalog from the ESO archive.